Hurghada, Egypt

3:26 AM EET on September 23, 2017 (GMT +0200)
Hurghada

Weather History for HEGN - May, 2013

Change the Weather History Date:

Friday, May 24, 2013

  Actual Average Record
Temperature  
Mean Temperature 92 °F -  
Max Temperature 108 °F 92 °F 108 °F (2013)
Min Temperature 77 °F 76 °F 69 °F (2004)
Cooling Degree Days 28    
Growing Degree Days 42 (Base 50)    
Moisture  
Dew Point 46 °F    
Average Humidity 19    
Maximum Humidity 32    
Minimum Humidity 5    
Precipitation  
Precipitation 0.00 in - - ()
Sea Level Pressure  
Sea Level Pressure 29.76 in    
Wind  
Wind Speed 10 mph ()    
Max Wind Speed 22 mph    
Max Gust Speed -    
Visibility 6.0 miles    
Events      
Averages and records for this station are not official NWS values.
T = Trace of Precipitation, MM = Missing Value Source: Averaged Metar Reports

Daily Weather History Graph

Daily Weather History Graph

Search for Another Location

Airport or City:

Trip Planner

Search our weather history database for the weather conditions in past years. The results will help you decide how hot, cold, wet, or windy it might be!

Date:

Astronomy

May. 24, 2013 Rise Set
Actual Time 4:52 AM EET 6:31 PM EET
Civil Twilight 4:27 AM EET 6:56 PM EET
Nautical Twilight 3:56 AM EET 7:27 PM EET
Astronomical Twilight 3:24 AM EET 8:00 PM EET
Moon 5:53 PM EET (5/24) 4:02 AM EET (5/24)
Length of Visible Light 14h 29m
Length of Day
13h 38m
Waxing Gibbous, 99% of the Moon is Illuminated
May 24
Waxing Gibbous
May 25
Full
May 31
Last Quarter
Jun 8
New
Jun 16
First Quarter

Hourly Weather History & Observations

Time (EET) Temp. Heat Index Dew Point Humidity Pressure Visibility Wind Dir Wind Speed Gust Speed Precip Events Conditions
12:00 AM 86.0 °F - 37.4 °F 18% 29.80 in - WNW 9.2 mph - N/A   Clear
1:00 AM 86.0 °F - 37.4 °F 18% 29.77 in - NW 11.5 mph - N/A   Clear
2:00 AM 82 °F - 38 °F 12% 29.78 in 6 mi NNW 6.9 mph - -  
2:00 AM 82.4 °F - 39.2 °F 21% 29.77 in - NNW 6.9 mph - N/A   Clear
3:00 AM 80.6 °F - 42.8 °F 26% 29.77 in - NNW 6.9 mph - N/A   Clear
4:00 AM 77.0 °F - 39.2 °F 26% 29.77 in - Calm Calm - N/A   Clear
5:00 AM 77.0 °F - 39.2 °F 26% 29.77 in - WNW 5.8 mph - N/A   Clear
6:00 AM 80.6 °F - 46.4 °F 30% 29.80 in - WNW 8.1 mph - N/A   Clear
7:00 AM 86.0 °F - 50.0 °F 29% 29.80 in - NNW 17.3 mph - N/A   Clear
8:00 AM 91.4 °F - 44.6 °F 20% 29.80 in - NW 13.8 mph - N/A   Clear
9:00 AM 98.6 °F - 44.6 °F 16% 29.80 in - North 15.0 mph - N/A   Clear
10:00 AM 98.6 °F - 51.8 °F 21% 29.80 in - North 16.1 mph - N/A   Clear
11:00 AM 98.6 °F 96.4 °F 53.6 °F 22% 29.80 in - North 13.8 mph - N/A   Clear
12:00 PM 102.2 °F 100.9 °F 55.4 °F 21% 29.80 in - NNE 11.5 mph - N/A   Clear
1:00 PM 104.0 °F - 51.8 °F 17% 29.77 in - North 13.8 mph - N/A   Clear
2:00 PM 105 °F - 50 °F 9% 29.76 in 6 mi NNE 11.5 mph - -  
2:00 PM 105.8 °F - 50.0 °F 15% 29.74 in - NNE 11.5 mph - N/A   Clear
3:00 PM 107.6 °F - 51.8 °F 16% 29.74 in - NNE 6.9 mph - N/A   Clear
4:00 PM 105.8 °F 104.3 °F 53.6 °F 18% 29.71 in - NNE 9.2 mph - N/A   Clear
5:00 PM 100.4 °F 100.2 °F 59.0 °F 25% 29.71 in - North 9.2 mph - N/A   Clear
6:00 PM 95.0 °F 95.2 °F 60.8 °F 32% 29.71 in - North 8.1 mph - N/A   Clear
7:00 PM 95.0 °F 92.7 °F 53.6 °F 25% 29.74 in - NNW 13.8 mph - N/A   Clear
8:00 PM 98 °F - 34 °F 5% 29.75 in 6 mi NNW 21.9 mph - -  
8:00 PM 96.8 °F - 33.8 °F 11% 29.74 in - NNW 21.9 mph - N/A   Clear
9:00 PM 96.8 °F - 28.4 °F 9% 29.74 in - NW 15.0 mph - N/A   Clear
10:00 PM 95.0 °F - 41.0 °F 15% 29.74 in - NW 13.8 mph - N/A   Clear
11:00 PM 91.4 °F - 44.6 °F 20% 29.77 in - NNW 16.1 mph - N/A   Clear